AXM722A WMKP-WMKL

Flight info

Callsign AXM722A
Flight time 0h 18m
Altitude 10000
Route OMBOK DCT KAPKO KAPKO1E
Aircraft A320/M-SDE3FGHIRWY/LB1

Departure

Time 2026-04-18 00:13
Airport Penang International Airport (WMKP)

Arrival

Time 2026-04-18 00:31
Airport Langkawi International Airport (WMKL)
Time Latitude Longitude Altitude Speed Heading
2026-04-17 23:35 5.29224 100.26645 23 ft 0 kts 311°
2026-04-18 00:05 5.29213 100.26658 23 ft 4 kts 309°
2026-04-18 00:05 5.29197 100.26680 23 ft 4 kts 302°
2026-04-18 00:05 5.29184 100.26704 23 ft 4 kts 282°
2026-04-18 00:06 5.29185 100.26725 23 ft 3 kts 223°
2026-04-18 00:06 5.29187 100.26727 23 ft 0 kts 220°
2026-04-18 00:09 5.29175 100.26717 24 ft 13 kts 221°
2026-04-18 00:09 5.29076 100.26625 23 ft 21 kts 223°
2026-04-18 00:09 5.28961 100.26624 23 ft 18 kts 139°
2026-04-18 00:09 5.28877 100.26666 23 ft 6 kts 217°
2026-04-18 00:10 5.28859 100.26647 23 ft 16 kts 219°
2026-04-18 00:10 5.28734 100.26578 25 ft 22 kts 186°
2026-04-18 00:10 5.28676 100.26603 23 ft 0 kts 134°
2026-04-18 00:11 5.28662 100.26618 23 ft 4 kts 134°
2026-04-18 00:11 5.28636 100.26649 24 ft 12 kts 128°
2026-04-18 00:11 5.28643 100.26711 23 ft 8 kts 51°
2026-04-18 00:11 5.28665 100.26733 23 ft 0 kts 42°
2026-04-18 00:12 5.28672 100.26738 24 ft 8 kts 42°
2026-04-18 00:12 5.28915 100.26960 27 ft 84 kts 42°
2026-04-18 00:12 5.29504 100.27495 24 ft 142 kts 42°
2026-04-18 00:12 5.30343 100.28259 165 ft 174 kts 42°
2026-04-18 00:13 5.31163 100.29000 1155 ft 149 kts 42°
2026-04-18 00:13 5.31895 100.29656 1931 ft 138 kts 41°
2026-04-18 00:13 5.32655 100.30322 2292 ft 156 kts 41°
2026-04-18 00:13 5.33528 100.31088 2582 ft 177 kts 41°
2026-04-18 00:14 5.34513 100.31956 2855 ft 201 kts 41°
2026-04-18 00:14 5.35630 100.32934 3184 ft 225 kts 38°
2026-04-18 00:14 5.37069 100.33720 3552 ft 249 kts 17°
2026-04-18 00:14 5.38848 100.33938 4043 ft 267 kts 354°
2026-04-18 00:15 5.40651 100.33430 4828 ft 274 kts 332°
2026-04-18 00:15 5.42149 100.32238 5649 ft 279 kts 309°
2026-04-18 00:15 5.43284 100.30641 6486 ft 283 kts 304°
2026-04-18 00:15 5.44403 100.29001 7304 ft 287 kts 304°
2026-04-18 00:16 5.45533 100.27336 8082 ft 291 kts 304°
2026-04-18 00:16 5.46683 100.25648 8830 ft 295 kts 305°
2026-04-18 00:16 5.47855 100.23935 9563 ft 300 kts 305°
2026-04-18 00:16 5.49051 100.22192 9910 ft 304 kts 305°
2026-04-18 00:17 5.50250 100.20444 9996 ft 304 kts 305°
2026-04-18 00:17 5.51447 100.18700 10014 ft 303 kts 305°
2026-04-18 00:17 5.52641 100.16958 10010 ft 303 kts 305°
2026-04-18 00:17 5.53834 100.15216 10012 ft 303 kts 305°
2026-04-18 00:18 5.55133 100.13561 10008 ft 302 kts 316°
2026-04-18 00:18 5.56787 100.12277 10012 ft 301 kts 331°
2026-04-18 00:18 5.58665 100.11347 10014 ft 301 kts 335°
2026-04-18 00:18 5.60478 100.10307 10010 ft 302 kts 322°
2026-04-18 00:19 5.62105 100.08977 10011 ft 302 kts 321°
2026-04-18 00:19 5.63726 100.07638 10007 ft 302 kts 321°
2026-04-18 00:19 5.65343 100.06295 10007 ft 302 kts 321°
2026-04-18 00:19 5.66961 100.04950 10007 ft 302 kts 321°
2026-04-18 00:20 5.68579 100.03604 10014 ft 302 kts 321°
2026-04-18 00:20 5.70193 100.02261 10051 ft 301 kts 321°
2026-04-18 00:20 5.71810 100.00914 10034 ft 302 kts 321°
2026-04-18 00:20 5.73427 99.99568 10026 ft 302 kts 321°
2026-04-18 00:21 5.75043 99.98226 10022 ft 302 kts 321°
2026-04-18 00:21 5.76664 99.96882 9968 ft 303 kts 321°
2026-04-18 00:21 5.78285 99.95537 9833 ft 302 kts 321°
2026-04-18 00:21 5.79903 99.94196 9708 ft 301 kts 321°
2026-04-18 00:22 5.81513 99.92854 9584 ft 300 kts 321°
2026-04-18 00:22 5.83119 99.91515 9505 ft 299 kts 321°
2026-04-18 00:22 5.84722 99.90180 9403 ft 300 kts 321°
2026-04-18 00:22 5.86325 99.88846 9276 ft 299 kts 321°
2026-04-18 00:23 5.87926 99.87516 9151 ft 298 kts 321°
2026-04-18 00:23 5.89523 99.86187 9078 ft 298 kts 321°
2026-04-18 00:23 5.91120 99.84860 8982 ft 298 kts 321°
2026-04-18 00:23 5.92716 99.83534 8856 ft 297 kts 321°
2026-04-18 00:24 5.94308 99.82211 8729 ft 297 kts 321°
2026-04-18 00:24 5.95895 99.80891 8653 ft 296 kts 321°
2026-04-18 00:24 5.97478 99.79574 8555 ft 296 kts 321°
2026-04-18 00:24 5.99061 99.78256 8430 ft 295 kts 321°
2026-04-18 00:25 6.00639 99.76943 8306 ft 294 kts 321°
2026-04-18 00:25 6.02213 99.75634 8220 ft 293 kts 321°
2026-04-18 00:25 6.03789 99.74328 8027 ft 295 kts 321°
2026-04-18 00:25 6.05359 99.73025 7514 ft 291 kts 321°
2026-04-18 00:26 6.06910 99.71733 6990 ft 288 kts 321°
2026-04-18 00:26 6.08445 99.70455 6513 ft 285 kts 321°
2026-04-18 00:26 6.09962 99.69191 5999 ft 282 kts 321°
2026-04-18 00:26 6.11465 99.67938 5477 ft 279 kts 321°
2026-04-18 00:27 6.12984 99.66742 4945 ft 276 kts 322°
2026-04-18 00:27 6.14296 99.65351 4207 ft 274 kts 309°
2026-04-18 00:27 6.15685 99.64072 3525 ft 270 kts 332°
2026-04-18 00:27 6.17419 99.63519 3242 ft 258 kts 355°
2026-04-18 00:28 6.19171 99.63682 2983 ft 251 kts 17°
2026-04-18 00:28 6.20700 99.64466 2684 ft 243 kts 34°
2026-04-18 00:28 6.22052 99.65393 2375 ft 228 kts 34°
2026-04-18 00:28 6.23328 99.66268 2082 ft 216 kts 34°
2026-04-18 00:29 6.24530 99.67091 1821 ft 202 kts 34°
2026-04-18 00:29 6.25632 99.67843 1569 ft 186 kts 34°
2026-04-18 00:29 6.26652 99.68539 1336 ft 167 kts 34°
2026-04-18 00:29 6.27575 99.69170 1096 ft 151 kts 34°
2026-04-18 00:30 6.28422 99.69749 902 ft 144 kts 34°
2026-04-18 00:30 6.29245 99.70311 715 ft 142 kts 34°
2026-04-18 00:30 6.30059 99.70867 529 ft 141 kts 34°
2026-04-18 00:30 6.30867 99.71419 342 ft 140 kts 34°
2026-04-18 00:31 6.31674 99.71970 157 ft 140 kts 34°
2026-04-18 00:31 6.32456 99.72514 50 ft 125 kts 34°
2026-04-18 00:31 6.33090 99.72946 32 ft 94 kts 34°
2026-04-18 00:31 6.33489 99.73217 32 ft 44 kts 34°
2026-04-18 00:32 6.33707 99.73346 32 ft 26 kts 14°
2026-04-18 00:32 6.33783 99.73295 32 ft 7 kts 302°
2026-04-18 00:32 6.33816 99.73248 32 ft 11 kts 307°
2026-04-18 00:32 6.33876 99.73196 32 ft 8 kts 327°
2026-04-18 00:33 6.33909 99.73156 32 ft 7 kts 305°
2026-04-18 00:33 6.33919 99.73143 32 ft 0 kts 305°